Location: Sungai Igah
(2.7333°N, 114.2500°E)
Time: 16:27:22
(UTC+00:00)

ATLAS 2AS CENTAUR R/B - Pass Details

Date: 29 October 2021
Orbit: 958 x 1254 km, 63.7° (Epoch: 28 November)

Event Time Altitude Azimuth Distance (km) Brightness Sun altitude
Rises 12:02:55 0° 185° (S) 4,034 5.9 -28.9°
Reaches altitude 10° 12:05:50 10° 176° (S) 3,110 5.2 -29.6°
Enters shadow 12:09:43 28° 152° (SSE) 2,112 4.1 -30.5°
